Location: Rogalle
(42.8890°N, 1.1916°E)
Time: 10:14:22
(UTC+00:00)

UNK - Pass Details

Date: 13 December 2025
Orbit: 653 x 673 km, 98.4° (Epoch: 21 January)

Event Time Altitude Azimuth Distance (km) Brightness Sun altitude
Rises 16:53:38 0° 17° (NNE) 3,018 6.7 -6.0°
Reaches altitude 10° 16:55:55 10° 22° (NNE) 2,097 5.8 -6.4°
Maximum altitude 17:00:25 57° 101° (E) 781 3.8 -7.2°
Drops below altitude 10° 17:04:52 10° 180° (S) 2,068 6.6 -7.9°
Sets 17:07:06 0° 185° (S) 2,973 7.5 -8.3°
